[[{"header":{"parameterUnit":"m.s-1","parameterCategory":2,"la1":30.2991,"la2":30.254,"lo1":-89.0895,"lo2":-89.0444,"dy":0.0017,"dx":0.0017,"nx":28,"ny":28,"refTime":"2023-08-16T09:00:00:Z","depth":"0","parameterNumber":2,"parameterNumberName":"U-component_of_CURRENTS"},"data":[0,0,0,0,0,0,0,0,0,0,0,0,0,0,0,0,0,0,0,0,0,0,0,0,0,0,0,0,0,0,0,0,0,0,0,0,0,0,0,0,0,0,0,0,0,0,0,0,0,0,0,0,0,0,0,0,0,0,0.2417,0.2418,0,0.2415,0.2414,0.2413,0.22,0.2196,0.2191,0.2187,0.203,0.203,0.2029,0,0,0,0,0,0,0,0,0,0,0,0,0,0.2227,0.223,0.2417,0.2418,0.2419,0.2416,0.2414,0.2413,0.2201,0.2196,0.219,0.2185,0.203,0.203,0.2029,0,0,0,0,0,0,0,0,0,0,0,0,0,0.2263,0.2231,0.2417,0.2323,0.2316,0.2416,0.2414,0.2413,0.2202,0.2195,0.2189,0.2183,0.203,0.203,0.2029,0.2158,0,0,0.2029,0.2028,0,0,0,0,0,0,0,0,0.2261,0.2268,0.2336,0.233,0.2322,0.2313,0.229,0.2324,0.2204,0.2231,0.2187,0.218,0.2124,0.2116,0.2112,0.2151,0.2144,0.2029,0.2028,0.2028,0.2028,0,0,0,0,0,0,0,0.2259,0.2267,0.2402,0.2338,0.233,0.2279,0.2275,0.2295,0.22,0.2228,0.2216,0.224,0.2116,0.2113,0.2107,0.2141,0.2029,0.2028,0.2028,0.2028,0.2196,0.22,0,0,0,0,0,0,0.2296,0.2266,0.2403,0.2404,0.229,0.2289,0.2284,0.2311,0.2203,0.2186,0.2245,0.223,0.2117,0.2108,0.2101,0.2229,0.2028,0.2028,0.2028,0.2191,0.2197,0.2202,0,0,0,0,0,0,0.2291,0.2308,0.2403,0.2344,0.2354,0.23,0.2332,0.2315,0.2306,0.2221,0.2195,0.2253,0.2111,0.2101,0.2124,0.2221,0.2028,0.2028,0.2186,0.2193,0.2199,0.2498,0,0,0,0,0,0,0.2286,0.2307,0.2353,0.2348,0.236,0.25,0.2339,0.232,0.2338,0.2317,0.2222,0.2199,0.2105,0.2125,0.2123,0.2217,0.2028,0.218,0.2189,0.2197,0.2483,0.2515,0.2542,0,0,0,0,0,0.2279,0.2386,0.2355,0.2373,0.242,0.2507,0.2509,0.2436,0.2345,0.2391,0.2301,0.2202,0.2177,0.213,0.2127,0.2223,0.2176,0.2187,0.2197,0.2469,0.2508,0.2541,0,0,0,0,0,0,0.2347,0.2376,0.234,0.2453,0.2491,0.2476,0.2534,0.2474,0.2445,0.2412,0.2278,0.2256,0.2309,0.2239,0.219,0.2294,0.2157,0.2167,0.2365,0.2401,0.243,0.2424,0.2027,0,0,0,0,0,0.2389,0.2458,0.248,0.2577,0.2607,0.2573,0.26,0.2557,0.2534,0.251,0.2445,0.2378,0.2363,0.2354,0.2331,0.2416,0.2374,0.2468,0.2498,0.2524,0.2517,0.2587,0.2623,0.2236,0.2236,0.2236,0,0,0.2446,0.2475,0.2514,0.2596,0.261,0.2679,0.2569,0.2647,0.2682,0.251,0.2545,0.2495,0.2409,0.2476,0.2494,0.2422,0.262,0.2537,0.256,0.2538,0.2602,0.264,0.2673,0.2243,0.2242,0.2241,0,0,0.259,0.2623,0.2712,0.2753,0.2813,0.2804,0.2837,0.2847,0.2829,0.289,0.2757,0.2765,0.2755,0.2707,0.2678,0.2871,0.2779,0.2871,0.302,0.3092,0.3124,0.3152,0.3182,0.3209,0.2883,0.2884,0.2885,0,0.2651,0.2748,0.2763,0.2851,0.2886,0.2864,0.2945,0.2972,0.298,0.2975,0.2934,0.2907,0.286,0.2893,0.2958,0.294,0.2949,0.2895,0.3133,0.3159,0.3182,0.3205,0.3232,0.29,0.2898,0.2896,0.2895,0,0.283,0.2903,0.298,0.3049,0.3104,0.3196,0.3217,0.3263,0.3241,0.3225,0.3275,0.3234,0.3184,0.3216,0.3151,0.3288,0.3234,0.3171,0.3047,0.324,0.3251,0.3274,0.2922,0.2917,0.2912,0.2908,0,0,0.297,0.307,0.309,0.3122,0.3201,0.3262,0.3353,0.3408,0.3426,0.3478,0.3499,0.3544,0.349,0.3455,0.3399,0.3485,0.3694,0.3426,0.3423,0.3463,0.3851,0.3564,0.3559,0.3695,0.37,0.3704,0.3804,0,0.3091,0.3237,0.3256,0.3391,0.3468,0.3458,0.3529,0.357,0.3585,0.362,0.3615,0.3621,0.3592,0.3575,0.3677,0.3649,0.3763,0.3671,0.3647,0.3645,0.3374,0.3579,0.3282,0.3323,0.3825,0.3829,0.3831,0,0.3254,0.3317,0.344,0.3508,0.3538,0.36,0.365,0.3711,0.3748,0.3752,0.3774,0.3737,0.3819,0.3785,0.3909,0.3857,0.3901,0.3913,0.3916,0.3545,0.3399,0.3203,0.3344,0.3221,0.3865,0.3862,0.3859,0,0.3323,0.3451,0.3528,0.356,0.3641,0.3671,0.3701,0.374,0.376,0.3813,0.381,0.3887,0.3881,0.3994,0.3975,0.3986,0.4097,0.409,0.3886,0.3864,0.3542,0.3481,0.355,0.4249,0.4249,0.4249,0.4249,0,0.3441,0.3513,0.3558,0.3607,0.3681,0.3717,0.3772,0.3803,0.3825,0.383,0.3865,0.3863,0.3949,0.3973,0.4031,0.3973,0.4135,0.3937,0.3886,0.3635,0.3584,0.3394,0.338,0.4253,0.4252,0.4251,0.425,0,0.3508,0.3545,0.3641,0.3705,0.3721,0.3767,0.3785,0.3809,0.3831,0.3837,0.3845,0.387,0.3877,0.3903,0.4013,0.3959,0.3825,0.3927,0.3586,0.349,0.3148,0.3159,0.3058,0.3005,0.3759,0.3753,0.3748,0,0.3542,0.3603,0.3681,0.3708,0.373,0.3777,0.3789,0.3813,0.3808,0.3811,0.3803,0.3796,0.3757,0.3739,0.3616,0.3599,0.3602,0.3321,0.3283,0.3101,0.3083,0.3047,0.3013,0.3018,0.3007,0.2998,0.2991,0,0.3604,0.3631,0.3686,0.3734,0.3759,0.3768,0.3776,0.3766,0.3761,0.3737,0.368,0.3653,0.3523,0.3291,0.3167,0.3134,0.3078,0.3132,0.3073,0.2607,0.2449,0.2376,0.2972,0.2912,0.292,0.2926,0.293,0.2933,0.3631,0.3665,0.3725,0.3758,0.3768,0.3732,0.3692,0.3664,0.3612,0.3486,0.3529,0.3347,0.3048,0.2792,0.2724,0.2301,0.2533,0.2206,0.2274,0.2285,0.21,0.2471,0.2247,0.2251,0.2255,0.2258,0.226,0,0.3669,0.3699,0.3734,0.3748,0.3711,0.3724,0.3655,0.355,0.3422,0.3276,0.3173,0.2711,0.2384,0.213,0.1639,0.148,0.15,0.1428,0.1382,0.1435,0.1856,0.168,0.116,0.116,0.1161,0.1161,0.1161,0.1161,0.3705,0.3742,0.3743,0.3687,0.3662,0.3541,0.347,0.3294,0.3132,0.2708,0.2359,0.2198,0.1812,0.1312,0.0935,0.0897,0.0927,0.0745,0.0966,0.1285,0.1366,0.1443,0.1276,0.068,0.068,0.0412,0.0409,0.0408]},{"header":{"parameterUnit":"m.s-1","parameterCategory":2,"la1":30.2991,"la2":30.254,"lo1":-89.0895,"lo2":-89.0444,"dy":0.0017,"dx":0.0017,"nx":28,"ny":28,"refTime":"2023-08-16T09:00:00:Z","depth":"0","parameterNumber":3,"parameterNumberName":"V-component_of_CURRENTS"},"data":[0,0,0,0,0,0,0,0,0,0,0,0,0,0,0,0,0,0,0,0,0,0,0,0,0,0,0,0,0,0,0,0,0,0,0,0,0,0,0,0,0,0,0,0,0,0,0,0,0,0,0,0,0,0,0,0,0,0,0.0661,0.0661,0,0.0675,0.0675,0.0674,0.0607,0.0606,0.0605,0.0603,0.0592,0.0592,0.0593,0,0,0,0,0,0,0,0,0,0,0,0,0,0.0493,0.0497,0.0661,0.0661,0.0662,0.0675,0.0675,0.0674,0.0608,0.0606,0.0604,0.0603,0.0591,0.0592,0.0594,0,0,0,0,0,0,0,0,0,0,0,0,0,0.0537,0.0498,0.066,0.0635,0.0633,0.0675,0.0675,0.0674,0.0608,0.0606,0.0604,0.0602,0.0591,0.0592,0.0594,0.0645,0,0,0.0598,0.0599,0,0,0,0,0,0,0,0,0.0535,0.0543,0.0638,0.0637,0.0635,0.0642,0.0612,0.0665,0.0609,0.0611,0.0603,0.0601,0.0612,0.0611,0.0611,0.0645,0.0644,0.0598,0.0599,0.06,0.06,0,0,0,0,0,0,0,0.0532,0.0541,0.066,0.0639,0.0637,0.0595,0.0599,0.0621,0.0618,0.0611,0.0608,0.0619,0.0609,0.0609,0.061,0.0644,0.0598,0.06,0.0601,0.0601,0.0656,0.0656,0,0,0,0,0,0,0.055,0.054,0.066,0.0661,0.0585,0.06,0.0604,0.0637,0.0618,0.0615,0.0621,0.0616,0.0608,0.0608,0.0609,0.0592,0.06,0.0601,0.0602,0.0655,0.0656,0.0656,0,0,0,0,0,0,0.0547,0.0561,0.0659,0.0603,0.0614,0.0607,0.0643,0.0639,0.0633,0.0627,0.0622,0.062,0.0606,0.0607,0.0606,0.0594,0.0602,0.0603,0.0654,0.0655,0.0656,0.0607,0,0,0,0,0,0,0.0542,0.0561,0.0585,0.0606,0.0618,0.068,0.0646,0.0641,0.0647,0.064,0.0626,0.0622,0.0605,0.0604,0.0608,0.0596,0.0605,0.0654,0.0655,0.0656,0.0608,0.0606,0.0605,0,0,0,0,0,0.0536,0.0573,0.0586,0.06,0.0654,0.0682,0.0683,0.0665,0.0649,0.0651,0.0628,0.0622,0.0613,0.0606,0.061,0.0598,0.0653,0.0654,0.0656,0.0609,0.0607,0.0605,0,0,0,0,0,0,0.0511,0.0571,0.0585,0.0639,0.0661,0.0672,0.0676,0.0675,0.0661,0.0651,0.0632,0.0628,0.062,0.0632,0.0624,0.0621,0.0633,0.0635,0.0596,0.0594,0.0593,0.0587,0.0606,0,0,0,0,0,0.0525,0.0562,0.0611,0.0648,0.0665,0.0676,0.0684,0.0682,0.0679,0.067,0.0657,0.0646,0.0635,0.063,0.063,0.0639,0.0691,0.0637,0.0635,0.0633,0.0634,0.0736,0.0744,0.066,0.066,0.066,0,0,0.0519,0.0562,0.0578,0.0644,0.0657,0.0655,0.0673,0.0694,0.0671,0.0676,0.0637,0.0646,0.0639,0.0625,0.0625,0.0628,0.068,0.0635,0.0632,0.0634,0.0738,0.0747,0.0754,0.0661,0.0661,0.0661,0,0,0.0503,0.0574,0.0582,0.0603,0.0643,0.0654,0.0664,0.0684,0.0674,0.0669,0.0649,0.0652,0.0646,0.0625,0.0616,0.0619,0.0671,0.0626,0.0605,0.0704,0.0712,0.0719,0.0776,0.0789,0.062,0.062,0.062,0,0.0482,0.052,0.0585,0.0588,0.0593,0.0648,0.0634,0.064,0.0647,0.0649,0.0649,0.065,0.0638,0.0619,0.0598,0.0611,0.0676,0.0604,0.0702,0.0711,0.0719,0.0776,0.0791,0.0618,0.0618,0.0619,0.0619,0,0.0461,0.0484,0.0493,0.0511,0.0527,0.0538,0.0563,0.0575,0.0585,0.0595,0.0608,0.0612,0.0618,0.0609,0.0591,0.0633,0.066,0.0691,0.0704,0.0725,0.0783,0.0799,0.0615,0.0616,0.0616,0.0617,0,0,0.0408,0.0463,0.0458,0.0463,0.0492,0.051,0.0489,0.0506,0.0524,0.0537,0.0563,0.0526,0.0575,0.057,0.0578,0.0639,0.0727,0.0683,0.0689,0.0732,0.0937,0.087,0.0882,0.0794,0.0798,0.08,0.0945,0,0.0356,0.0357,0.0388,0.0367,0.0372,0.0415,0.0403,0.0428,0.0469,0.0519,0.055,0.0586,0.0548,0.0584,0.0629,0.0736,0.0774,0.0683,0.0917,0.0923,0.0856,0.09,0.084,0.0958,0.0962,0.0965,0.0967,0,0.0306,0.0322,0.03,0.0333,0.0339,0.0331,0.0372,0.0376,0.0451,0.0494,0.0544,0.0604,0.0668,0.0666,0.0819,0.0778,0.0833,0.0901,0.091,0.0877,0.0887,0.0944,0.0989,0.0947,0.0993,0.0991,0.0989,0,0.0252,0.0257,0.0248,0.0252,0.029,0.0289,0.0311,0.0367,0.0417,0.0511,0.0598,0.0666,0.0769,0.0855,0.0948,0.0922,0.1148,0.1139,0.1109,0.1105,0.1111,0.1101,0.1137,0.1231,0.1231,0.1231,0.123,0,0.02,0.0194,0.0231,0.023,0.0244,0.0269,0.0314,0.035,0.0451,0.0552,0.0602,0.0724,0.0839,0.0969,0.101,0.1116,0.1198,0.1113,0.1149,0.1087,0.1073,0.1082,0.1067,0.1236,0.1235,0.1234,0.1233,0,0.0166,0.0175,0.0184,0.0214,0.0227,0.0247,0.0337,0.0398,0.0476,0.0626,0.0675,0.0833,0.1004,0.1076,0.1255,0.1218,0.1291,0.1306,0.1192,0.1208,0.1099,0.1083,0.118,0.1204,0.1312,0.1311,0.131,0,0.0159,0.0155,0.0188,0.0214,0.0235,0.0278,0.0332,0.0404,0.0493,0.0703,0.0797,0.0985,0.1142,0.1329,0.1312,0.136,0.1321,0.1278,0.1182,0.1086,0.1099,0.1085,0.1098,0.1177,0.1175,0.1174,0.1173,0,0.0162,0.017,0.0195,0.024,0.0287,0.0354,0.0436,0.0511,0.0637,0.0782,0.1005,0.1151,0.1293,0.135,0.1345,0.1333,0.1231,0.1247,0.1221,0.1043,0.0968,0.101,0.1058,0.1161,0.1162,0.1163,0.1164,0.1164,0.0186,0.0207,0.0239,0.0285,0.0346,0.0437,0.0513,0.0639,0.0797,0.1045,0.1142,0.1375,0.1356,0.1364,0.132,0.1123,0.1185,0.1051,0.1057,0.1065,0.1025,0.1001,0.109,0.1091,0.1091,0.1092,0.1092,0,0.0218,0.0242,0.0289,0.0355,0.0434,0.0455,0.0597,0.0708,0.0915,0.1148,0.1349,0.1435,0.14,0.13,0.1046,0.095,0.0937,0.0903,0.0884,0.0925,0.0972,0.0897,0.086,0.086,0.0861,0.0861,0.0861,0.0861,0.0243,0.0283,0.0299,0.0415,0.0476,0.0599,0.0686,0.087,0.1046,0.1302,0.1432,0.1528,0.1385,0.1055,0.0841,0.0807,0.0815,0.076,0.0833,0.0835,0.0849,0.0862,0.0787,0.0728,0.0728,0.0771,0.0771,0.0771]}],[{"header":{"parameterUnit":"m.s-1","parameterCategory":2,"la1":30.2991,"la2":30.254,"lo1":-89.0895,"lo2":-89.0444,"dy":0.0017,"dx":0.0017,"nx":28,"ny":28,"refTime":"2023-08-16T09:00:00:Z","depth":"2","parameterNumber":2,"parameterNumberName":"U-component_of_CURRENTS"},"data":[0,0,0,0,0,0,0,0,0,0,0,0,0,0,0,0,0,0,0,0,0,0,0,0,0,0,0,0,0,0,0,0,0,0,0,0,0,0,0,0,0,0,0,0,0,0,0,0,0,0,0,0,0,0,0,0,0,0,0.1234,0.1235,0,0.131,0.1312,0.1313,0.1342,0.1341,0.1341,0.134,0.1313,0.1312,0.1312,0,0,0,0,0,0,0,0,0,0,0,0,0,0.1221,0.1221,0.1234,0.1235,0.1235,0.131,0.1312,0.1313,0.1342,0.1341,0.1341,0.134,0.1313,0.1312,0.1312,0,0,0,0,0,0,0,0,0,0,0,0,0,0.1258,0.1221,0.1234,0.1256,0.1258,0.131,0.1312,0.1313,0.1342,0.1341,0.1341,0.134,0.1313,0.1312,0.1312,0.1328,0,0,0.1311,0.1311,0,0,0,0,0,0,0,0,0.1256,0.1259,0.1252,0.1254,0.1257,0.1312,0.1297,0.1312,0.1342,0.1315,0.134,0.1339,0.1301,0.1302,0.1325,0.1326,0.1325,0.1311,0.1311,0.1311,0.1311,0,0,0,0,0,0,0,0.1253,0.1257,0.1268,0.1253,0.1256,0.1299,0.1302,0.1301,0.1313,0.1317,0.1318,0.1321,0.1302,0.1325,0.1324,0.1325,0.1311,0.1311,0.1311,0.1311,0.134,0.1341,0,0,0,0,0,0,0.1231,0.1254,0.1266,0.127,0.125,0.1299,0.1303,0.1299,0.1315,0.1317,0.1321,0.1322,0.1326,0.1324,0.1323,0.132,0.1311,0.1311,0.131,0.1339,0.134,0.1341,0,0,0,0,0,0,0.1231,0.1231,0.1263,0.1261,0.1268,0.1299,0.1294,0.1301,0.134,0.1319,0.1319,0.1355,0.1325,0.1323,0.1345,0.132,0.131,0.131,0.1338,0.1339,0.134,0.1328,0,0,0,0,0,0,0.123,0.1231,0.1241,0.1259,0.1267,0.1238,0.1295,0.1303,0.134,0.1342,0.1348,0.1344,0.1325,0.1346,0.1345,0.1319,0.131,0.1336,0.1338,0.134,0.1327,0.1329,0.133,0,0,0,0,0,0.1229,0.1212,0.1241,0.1244,0.1272,0.1235,0.1241,0.1266,0.1343,0.1313,0.1376,0.1344,0.1355,0.1348,0.1346,0.1319,0.1336,0.1338,0.134,0.1327,0.1329,0.133,0,0,0,0,0,0,0.1191,0.1214,0.1246,0.1234,0.1219,0.1237,0.1234,0.1286,0.1323,0.1361,0.1371,0.1368,0.1358,0.1366,0.1358,0.1337,0.1334,0.1336,0.1325,0.1327,0.1328,0.1368,0.131,0,0,0,0,0,0.1196,0.1207,0.1205,0.1199,0.1189,0.1236,0.1246,0.127,0.1299,0.1319,0.1312,0.1344,0.1367,0.1372,0.1355,0.137,0.1431,0.1351,0.1352,0.1353,0.1388,0.1501,0.1516,0.1348,0.1348,0.1348,0,0,0.1197,0.12,0.1217,0.1196,0.1206,0.1198,0.1238,0.1242,0.1259,0.1308,0.1315,0.1331,0.137,0.1362,0.136,0.1369,0.1426,0.1356,0.1356,0.1391,0.1505,0.1521,0.1536,0.1349,0.1349,0.1349,0,0,0.1179,0.1184,0.1191,0.1173,0.1176,0.1186,0.1191,0.1199,0.1212,0.1255,0.1286,0.1322,0.1333,0.1346,0.1377,0.1394,0.1417,0.1362,0.1415,0.1522,0.1538,0.1552,0.1619,0.164,0.1379,0.1379,0.1379,0,0.1189,0.118,0.1178,0.1161,0.1158,0.1183,0.118,0.1193,0.121,0.1241,0.1247,0.1345,0.1343,0.1409,0.1407,0.1394,0.1458,0.1398,0.1526,0.1542,0.1557,0.1623,0.1646,0.1379,0.1379,0.1379,0.1379,0,0.1174,0.1169,0.1149,0.1156,0.1142,0.1124,0.1132,0.1134,0.1192,0.1231,0.1285,0.1319,0.1396,0.1374,0.1412,0.1493,0.15,0.15,0.1522,0.1574,0.1638,0.1662,0.1378,0.1378,0.1378,0.1378,0,0,0.119,0.1158,0.1157,0.1163,0.114,0.1134,0.1144,0.1162,0.1235,0.1248,0.1343,0.138,0.1428,0.1468,0.1481,0.1574,0.1706,0.1593,0.1599,0.166,0.1936,0.1717,0.1723,0.1739,0.1744,0.1748,0.1927,0,0.1182,0.1165,0.1147,0.1144,0.113,0.114,0.1152,0.1194,0.1243,0.1312,0.1392,0.1466,0.1452,0.1515,0.1602,0.1692,0.1776,0.1657,0.1878,0.1885,0.1685,0.1746,0.1564,0.169,0.1951,0.1955,0.1958,0,0.1168,0.116,0.1159,0.1159,0.1158,0.1177,0.1237,0.1251,0.1345,0.1398,0.15,0.1555,0.1682,0.167,0.1879,0.1812,0.1882,0.1943,0.1952,0.1779,0.1712,0.1688,0.1725,0.1999,0.1995,0.1992,0.199,0,0.1185,0.1161,0.117,0.1166,0.1178,0.1212,0.123,0.1303,0.1336,0.1466,0.1547,0.1684,0.1791,0.1919,0.1996,0.1987,0.2212,0.2215,0.2076,0.2061,0.1966,0.1931,0.2371,0.2371,0.237,0.237,0.2369,0,0.1162,0.117,0.1195,0.1207,0.1248,0.1253,0.1328,0.1364,0.1451,0.1521,0.1603,0.17,0.1872,0.1984,0.2057,0.2115,0.2264,0.2107,0.2104,0.1945,0.1908,0.2226,0.2207,0.2376,0.2375,0.2374,0.2372,0,0.1173,0.1175,0.1197,0.124,0.1256,0.1302,0.1355,0.1408,0.1489,0.1591,0.1638,0.1779,0.1923,0.2007,0.2213,0.2175,0.2256,0.2221,0.1979,0.1941,0.2034,0.2012,0.2165,0.2159,0.2154,0.2149,0.2146,0,0.1177,0.1196,0.1243,0.1276,0.13,0.1359,0.139,0.143,0.1463,0.1624,0.1664,0.1826,0.1893,0.204,0.202,0.2066,0.2156,0.1887,0.1817,0.2036,0.2021,0.2006,0.1992,0.1707,0.17,0.1695,0.169,0,0.1213,0.1244,0.1273,0.1325,0.1365,0.1384,0.1422,0.1435,0.1494,0.1558,0.166,0.1738,0.1837,0.1784,0.1755,0.1757,0.1861,0.1767,0.2142,0.1723,0.1602,0.1585,0.1589,0.164,0.1645,0.1649,0.1652,0.1654,0.1267,0.1291,0.134,0.138,0.141,0.1403,0.1386,0.1408,0.1417,0.1466,0.1576,0.1613,0.1623,0.1498,0.1437,0.1379,0.1538,0.1485,0.1506,0.1533,0.1384,0.1253,0.12,0.1202,0.1204,0.1206,0.1208,0,0.133,0.1358,0.1393,0.1409,0.1404,0.1442,0.1398,0.137,0.134,0.1354,0.1401,0.1255,0.1177,0.1206,0.1035,0.0978,0.102,0.0937,0.1012,0.106,0.1103,0.0936,0.0632,0.0631,0.063,0.0628,0,0,0.1371,0.14,0.1387,0.1388,0.1418,0.1366,0.1325,0.1297,0.1249,0.1154,0.1097,0.1172,0.1172,0.091,0.0831,0.0722,0.0898,0.0674,0.1133,0.1272,0.1314,0.1405,0.1197,0,0,0,0,0]},{"header":{"parameterUnit":"m.s-1","parameterCategory":2,"la1":30.2991,"la2":30.254,"lo1":-89.0895,"lo2":-89.0444,"dy":0.0017,"dx":0.0017,"nx":28,"ny":28,"refTime":"2023-08-16T09:00:00:Z","depth":"2","parameterNumber":3,"parameterNumberName":"V-component_of_CURRENTS"},"data":[0,0,0,0,0,0,0,0,0,0,0,0,0,0,0,0,0,0,0,0,0,0,0,0,0,0,0,0,0,0,0,0,0,0,0,0,0,0,0,0,0,0,0,0,0,0,0,0,0,0,0,0,0,0,0,0,0,0,0.0036,0.0036,0,0.0073,0.0074,0.0074,0.0091,0.0091,0.0091,0.0092,0.0134,0.0134,0.0135,0,0,0,0,0,0,0,0,0,0,0,0,0,-0.0044,-0.0043,0.0035,0.0036,0.0037,0.0073,0.0074,0.0074,0.0091,0.0091,0.0091,0.0092,0.0133,0.0134,0.0135,0,0,0,0,0,0,0,0,0,0,0,0,0,-0.0011,-0.0042,0.0035,0.0052,0.0054,0.0073,0.0074,0.0074,0.0091,0.0091,0.0091,0.0092,0.0133,0.0134,0.0136,0.0137,0,0,0.014,0.014,0,0,0,0,0,0,0,0,-0.0013,-0.0008,0.0049,0.0051,0.0053,0.008,0.0061,0.0096,0.0091,0.0074,0.0092,0.0092,0.0118,0.012,0.0123,0.0139,0.0141,0.014,0.0141,0.0141,0.0142,0,0,0,0,0,0,0,-0.0015,-0.001,0.0047,0.005,0.0052,0.005,0.0055,0.0068,0.0091,0.0075,0.0077,0.0086,0.0119,0.0121,0.0124,0.0141,0.014,0.0141,0.0142,0.0142,0.0153,0.0152,0,0,0,0,0,0,-0.0013,-0.0012,0.0046,0.0049,0.0024,0.0052,0.0057,0.0069,0.0091,0.0096,0.0086,0.0087,0.0119,0.0122,0.0125,0.0139,0.0141,0.0143,0.0143,0.0153,0.0153,0.0152,0,0,0,0,0,0,-0.0015,-0.0008,0.0045,0.0021,0.0028,0.0053,0.0066,0.007,0.0081,0.01,0.0104,0.0096,0.0119,0.0123,0.0135,0.014,0.0143,0.0144,0.0154,0.0153,0.0152,0.0159,0,0,0,0,0,0,-0.0017,-0.0009,0.0001,0.0022,0.003,0.006,0.0066,0.007,0.0087,0.0089,0.0109,0.0113,0.012,0.0133,0.0137,0.0142,0.0145,0.0155,0.0154,0.0153,0.0159,0.0158,0.0158,0,0,0,0,0,-0.002,-0.0004,0.0001,0.0008,0.0042,0.0061,0.0064,0.0081,0.0088,0.0092,0.0101,0.0113,0.0129,0.0134,0.0138,0.0144,0.0155,0.0154,0.0153,0.016,0.0159,0.0158,0,0,0,0,0,0,-0.0035,0.0,0.0006,0.0032,0.0045,0.0065,0.0074,0.0085,0.0095,0.01,0.0111,0.0115,0.012,0.013,0.0135,0.0141,0.0142,0.0141,0.0146,0.0145,0.0144,0.0202,0.0147,0,0,0,0,0,-0.0033,-0.001,0.0013,0.0032,0.0039,0.0056,0.0066,0.0079,0.0092,0.0098,0.0105,0.0113,0.0116,0.013,0.0127,0.0144,0.0183,0.0146,0.0145,0.0145,0.0192,0.0239,0.0248,0.0148,0.0148,0.0148,0,0,-0.0033,-0.0011,0.0002,0.0031,0.0041,0.0064,0.0062,0.0082,0.0109,0.0101,0.0125,0.0106,0.0114,0.012,0.0125,0.0135,0.0187,0.0143,0.0143,0.0192,0.0239,0.0249,0.0258,0.0147,0.0147,0.0148,0,0,-0.0013,-0.0004,0.0025,0.0038,0.0063,0.0072,0.008,0.0096,0.0109,0.0128,0.0117,0.0112,0.0122,0.0128,0.0135,0.0133,0.0169,0.0116,0.0179,0.0221,0.0231,0.0241,0.0282,0.0296,0.013,0.013,0.013,0,-0.0016,0.0025,0.0032,0.0062,0.0079,0.0078,0.0108,0.0123,0.014,0.017,0.014,0.0165,0.0137,0.0184,0.016,0.0136,0.017,0.0182,0.0225,0.0235,0.0244,0.0285,0.03,0.013,0.013,0.013,0.013,0,0.0029,0.0058,0.0071,0.0111,0.0127,0.0146,0.0168,0.0188,0.0193,0.0217,0.0252,0.0218,0.0247,0.0209,0.0181,0.023,0.0232,0.0207,0.0236,0.0256,0.0296,0.0311,0.013,0.013,0.013,0.013,0,0,0.0027,0.0091,0.0095,0.0127,0.0153,0.0176,0.0219,0.0271,0.0336,0.0327,0.041,0.0361,0.0354,0.036,0.0318,0.034,0.038,0.0303,0.0305,0.0362,0.049,0.039,0.0396,0.0366,0.0369,0.0371,0.0484,0,0.0055,0.0122,0.0146,0.0204,0.0235,0.0256,0.0307,0.0358,0.0393,0.0465,0.0463,0.0494,0.0412,0.0409,0.0425,0.0403,0.0425,0.0354,0.045,0.0454,0.0377,0.0412,0.0364,0.0452,0.0499,0.0501,0.0503,0,0.0087,0.0132,0.019,0.0273,0.029,0.0318,0.0413,0.046,0.0561,0.0594,0.065,0.0653,0.0686,0.059,0.0636,0.06,0.055,0.0526,0.0529,0.046,0.0383,0.0443,0.0478,0.0529,0.0527,0.0525,0.0523,0,0.0083,0.0162,0.021,0.0231,0.0318,0.0354,0.0395,0.0494,0.0566,0.0668,0.0733,0.08,0.0827,0.0816,0.0737,0.0702,0.0785,0.0731,0.061,0.0603,0.0597,0.0583,0.0762,0.0762,0.0762,0.0762,0.0761,0,0.0103,0.0145,0.021,0.0236,0.0319,0.0363,0.0468,0.0529,0.0643,0.0766,0.0783,0.0888,0.0882,0.0916,0.0833,0.0782,0.0865,0.0656,0.0636,0.0589,0.0574,0.0668,0.0656,0.0766,0.0765,0.0764,0.0763,0,0.0099,0.0137,0.0203,0.0287,0.0316,0.0369,0.0489,0.0599,0.0666,0.0828,0.0858,0.0982,0.1026,0.0991,0.0989,0.0895,0.0845,0.0783,0.0721,0.069,0.062,0.0606,0.0721,0.0719,0.0717,0.0715,0.0714,0,0.0105,0.0134,0.0225,0.028,0.0314,0.0401,0.05,0.0596,0.0722,0.0894,0.0998,0.1068,0.1139,0.11,0.0954,0.0836,0.0817,0.0697,0.0598,0.0653,0.0622,0.0611,0.0601,0.0599,0.0597,0.0595,0.0594,0,0.0121,0.0142,0.0209,0.0311,0.0403,0.0527,0.0655,0.0754,0.0908,0.1017,0.1178,0.122,0.1168,0.1053,0.0856,0.0757,0.0716,0.0651,0.0783,0.058,0.0536,0.0505,0.0501,0.0578,0.0579,0.0581,0.0581,0.0582,0.0133,0.0182,0.0261,0.0371,0.0483,0.064,0.0754,0.0899,0.1059,0.1224,0.1279,0.1288,0.1162,0.087,0.0729,0.0561,0.0578,0.0505,0.0513,0.0522,0.045,0.0401,0.0406,0.0407,0.0407,0.0408,0.0408,0,0.0172,0.0228,0.0326,0.0471,0.0617,0.0647,0.0873,0.0985,0.1158,0.124,0.131,0.1126,0.0977,0.0816,0.053,0.0382,0.0388,0.0345,0.0389,0.0403,0.0417,0.0342,0.0269,0.0269,0.0269,0.0268,0,0,0.0199,0.0303,0.0363,0.0571,0.0661,0.0846,0.097,0.1084,0.116,0.1215,0.1178,0.1164,0.0959,0.0734,0.0551,0.0405,0.0437,0.0371,0.0487,0.057,0.0586,0.0502,0.04,0,0,0,0,0]}],[{"header":{"parameterUnit":"m.s-1","parameterCategory":2,"la1":30.2991,"la2":30.254,"lo1":-89.0895,"lo2":-89.0444,"dy":0.0017,"dx":0.0017,"nx":28,"ny":28,"refTime":"2023-08-16T09:00:00:Z","depth":"4","parameterNumber":2,"parameterNumberName":"U-component_of_CURRENTS"},"data":[0,0,0,0,0,0,0,0,0,0,0,0,0,0,0,0,0,0,0,0,0,0,0,0,0,0,0,0,0,0,0,0,0,0,0,0,0,0,0,0,0,0,0,0,0,0,0,0,0,0,0,0,0,0,0,0,0,0,0.036,0.036,0,0.0403,0.0404,0.0405,0.0467,0.0468,0.0469,0.0469,0.0479,0.0478,0.0478,0,0,0,0,0,0,0,0,0,0,0,0,0,0.0389,0.0388,0.036,0.036,0.0361,0.0403,0.0404,0.0405,0.0467,0.0468,0.0469,0.047,0.0479,0.0478,0.0478,0,0,0,0,0,0,0,0,0,0,0,0,0,0.0402,0.0388,0.036,0.0394,0.0397,0.0403,0.0404,0.0405,0.0467,0.0468,0.0469,0.047,0.0479,0.0479,0.0478,0.0452,0,0,0.0476,0.0476,0,0,0,0,0,0,0,0,0.0401,0.0401,0.0389,0.0392,0.0395,0.0428,0.0418,0.0418,0.0467,0.0445,0.0469,0.0471,0.0455,0.0457,0.0468,0.0453,0.0453,0.0476,0.0476,0.0475,0.0475,0,0,0,0,0,0,0,0.04,0.04,0.0381,0.0389,0.0393,0.0426,0.0429,0.0419,0.0446,0.0447,0.045,0.0448,0.0457,0.0469,0.0469,0.0453,0.0476,0.0475,0.0475,0.0475,0.0486,0.0487,0,0,0,0,0,0,0.0382,0.0399,0.038,0.0382,0.0396,0.0424,0.0428,0.0419,0.0447,0.0451,0.0447,0.0451,0.0469,0.047,0.0469,0.048,0.0475,0.0475,0.0474,0.0485,0.0486,0.0487,0,0,0,0,0,0,0.0383,0.038,0.0378,0.0389,0.0391,0.0422,0.0412,0.0419,0.0442,0.0447,0.0452,0.0464,0.047,0.047,0.0491,0.0479,0.0474,0.0474,0.0485,0.0486,0.0487,0.0474,0,0,0,0,0,0,0.0383,0.038,0.0372,0.0387,0.0389,0.0365,0.0411,0.0419,0.0437,0.0443,0.0461,0.0463,0.0471,0.0492,0.049,0.0478,0.0473,0.0484,0.0485,0.0486,0.0474,0.0475,0.0476,0,0,0,0,0,0.0384,0.0355,0.0371,0.0369,0.0376,0.0364,0.0367,0.0397,0.0436,0.0427,0.0475,0.0464,0.0499,0.0492,0.049,0.0477,0.0483,0.0485,0.0486,0.0474,0.0475,0.0476,0,0,0,0,0,0,0.0357,0.0358,0.0377,0.0349,0.0352,0.0372,0.0364,0.0398,0.043,0.0445,0.0473,0.0477,0.0488,0.049,0.0483,0.0488,0.0487,0.0488,0.0478,0.0479,0.048,0.0457,0.0473,0,0,0,0,0,0.0347,0.0331,0.0339,0.0317,0.0314,0.0347,0.0351,0.0372,0.0399,0.0416,0.0435,0.0465,0.0489,0.0493,0.0502,0.05,0.0508,0.0492,0.0493,0.0493,0.0476,0.0519,0.0522,0.0492,0.0492,0.0492,0,0,0.0331,0.033,0.0321,0.0312,0.0319,0.031,0.0352,0.0347,0.0353,0.0407,0.0422,0.0461,0.0492,0.0502,0.0505,0.0502,0.0505,0.0495,0.0495,0.0477,0.0521,0.0524,0.0527,0.0493,0.0493,0.0493,0,0,0.0289,0.0286,0.0265,0.0262,0.0265,0.028,0.0279,0.0301,0.032,0.0335,0.0396,0.0437,0.0446,0.0483,0.0502,0.051,0.051,0.0512,0.049,0.0533,0.0536,0.0538,0.0541,0.0544,0.051,0.051,0.051,0,0.028,0.0247,0.0255,0.0237,0.0235,0.0266,0.0252,0.0264,0.0297,0.0327,0.0327,0.042,0.0433,0.0494,0.0496,0.0507,0.0525,0.0483,0.0533,0.0536,0.0538,0.0541,0.0544,0.0509,0.0509,0.0509,0.0509,0,0.0223,0.0206,0.0185,0.0179,0.0179,0.0159,0.018,0.0197,0.0228,0.0262,0.0317,0.0361,0.043,0.0433,0.0457,0.0499,0.0503,0.0532,0.0526,0.054,0.0542,0.0546,0.0509,0.0509,0.0509,0.0509,0,0,0.0186,0.0156,0.0152,0.015,0.0148,0.0147,0.0153,0.018,0.0229,0.0241,0.0302,0.0336,0.0396,0.0422,0.0477,0.0492,0.0514,0.051,0.0513,0.0503,0.0587,0.0545,0.0545,0.0563,0.0564,0.0565,0.0576,0,0.0146,0.0103,0.0104,0.0081,0.0061,0.0099,0.0115,0.0155,0.0201,0.0263,0.0313,0.039,0.0384,0.0451,0.046,0.053,0.0524,0.0506,0.0581,0.0582,0.0537,0.0548,0.0568,0.0578,0.0579,0.058,0.058,0,0.0088,0.0073,0.0034,0.0053,0.0053,0.0063,0.0132,0.0154,0.0245,0.0299,0.0377,0.0432,0.0494,0.048,0.0545,0.0542,0.0543,0.0558,0.0561,0.0524,0.0547,0.0566,0.0586,0.0586,0.0585,0.0585,0.0585,0,0.0046,0.0027,-0.0001,-0.0005,0.0018,0.0046,0.0087,0.0176,0.0238,0.0353,0.0424,0.0496,0.0566,0.0579,0.0589,0.0591,0.0626,0.0651,0.0595,0.0592,0.0631,0.0628,0.0652,0.0652,0.0652,0.0652,0.0652,0,-0.0013,-0.0033,-0.0012,-0.003,0.0007,0.0036,0.0119,0.0184,0.0301,0.0386,0.0459,0.0532,0.0594,0.0619,0.0605,0.0603,0.0647,0.0577,0.0596,0.0624,0.0621,0.0632,0.063,0.0652,0.0652,0.0652,0.0652,0,-0.007,-0.0077,-0.0094,-0.0055,-0.0022,0.0013,0.0154,0.0219,0.0334,0.045,0.0495,0.0591,0.064,0.065,0.0683,0.0643,0.0639,0.0611,0.0607,0.0627,0.0568,0.0565,0.058,0.0578,0.0577,0.0576,0.0576,0,-0.011,-0.0136,-0.0098,-0.0072,-0.0048,0.0035,0.0104,0.0236,0.0316,0.0471,0.051,0.0598,0.0643,0.0647,0.0656,0.0634,0.061,0.0592,0.0588,0.0545,0.0563,0.0561,0.056,0.0574,0.0574,0.0573,0.0573,0,-0.017,-0.0163,-0.0155,-0.0097,-0.0035,0.004,0.0147,0.0218,0.0358,0.0457,0.0545,0.058,0.0619,0.0633,0.0613,0.0588,0.0611,0.058,0.0583,0.058,0.0539,0.0556,0.0556,0.0569,0.057,0.057,0.057,0,-0.0191,-0.0187,-0.0167,-0.0104,-0.0047,0.0017,0.0094,0.0197,0.0298,0.0468,0.0483,0.0555,0.0621,0.0606,0.0582,0.0569,0.0566,0.0535,0.054,0.0544,0.0525,0.0467,0.0484,0,0,0,0,0,-0.0204,-0.0192,-0.0162,-0.0105,-0.006,-0.002,0.0101,0.0177,0.0315,0.0369,0.0442,0.0477,0.0507,0.0528,0.0508,0.054,0.0541,0.051,0.0501,0.0548,0.0553,0.0532,0,0,0,0,0,0,-0.021,-0.0192,-0.0173,-0.0128,-0.0096,-0.0035,0.0033,0.0127,0.0179,0.031,0.0329,0.0418,0.0443,0.0501,0.0483,0.0489,0.0468,0.0552,0.0551,0.0546,0.055,0.0553,0.0533,0,0,0,0,0]},{"header":{"parameterUnit":"m.s-1","parameterCategory":2,"la1":30.2991,"la2":30.254,"lo1":-89.0895,"lo2":-89.0444,"dy":0.0017,"dx":0.0017,"nx":28,"ny":28,"refTime":"2023-08-16T09:00:00:Z","depth":"4","parameterNumber":3,"parameterNumberName":"V-component_of_CURRENTS"},"data":[0,0,0,0,0,0,0,0,0,0,0,0,0,0,0,0,0,0,0,0,0,0,0,0,0,0,0,0,0,0,0,0,0,0,0,0,0,0,0,0,0,0,0,0,0,0,0,0,0,0,0,0,0,0,0,0,0,0,-0.0031,-0.0031,0,-0.0053,-0.0053,-0.0054,-0.006,-0.006,-0.006,-0.0059,-0.0024,-0.0023,-0.0023,0,0,0,0,0,0,0,0,0,0,0,0,0,-0.0066,-0.0065,-0.0031,-0.0031,-0.0031,-0.0053,-0.0053,-0.0054,-0.006,-0.006,-0.0059,-0.0059,-0.0024,-0.0023,-0.0023,0,0,0,0,0,0,0,0,0,0,0,0,0,-0.0067,-0.0065,-0.003,-0.0035,-0.0036,-0.0053,-0.0053,-0.0054,-0.006,-0.006,-0.0059,-0.0059,-0.0025,-0.0024,-0.0022,-0.0024,0,0,-0.0019,-0.0019,0,0,0,0,0,0,0,0,-0.0067,-0.0066,-0.0035,-0.0035,-0.0036,-0.0052,-0.0053,-0.004,-0.006,-0.0053,-0.0059,-0.0059,-0.0027,-0.0026,-0.0034,-0.0022,-0.0021,-0.0019,-0.0019,-0.0018,-0.0018,0,0,0,0,0,0,0,-0.0067,-0.0066,-0.0041,-0.0035,-0.0035,-0.0061,-0.0061,-0.0051,-0.0042,-0.0053,-0.0053,-0.0054,-0.0027,-0.0035,-0.0033,-0.002,-0.0019,-0.0018,-0.0018,-0.0017,-0.001,-0.001,0,0,0,0,0,0,-0.0057,-0.0065,-0.004,-0.0041,-0.0049,-0.0061,-0.006,-0.0048,-0.0043,-0.0042,-0.0054,-0.0054,-0.0037,-0.0034,-0.0032,0.0009,-0.0018,-0.0017,-0.0017,-0.0009,-0.001,-0.001,0,0,0,0,0,0,-0.0058,-0.0055,-0.0039,-0.0054,-0.0053,-0.006,-0.0047,-0.0049,-0.0053,-0.0044,-0.0042,-0.0055,-0.0037,-0.0033,-0.003,0.0009,-0.0017,-0.0016,-0.0009,-0.001,-0.001,0.0065,0,0,0,0,0,0,-0.0059,-0.0054,-0.0048,-0.0052,-0.0052,-0.0025,-0.0048,-0.005,-0.0053,-0.0053,-0.0044,-0.0041,-0.0036,-0.0032,-0.0029,0.001,-0.0015,-0.0008,-0.0009,-0.001,0.0063,0.0067,0.007,0,0,0,0,0,-0.006,-0.0038,-0.0047,-0.0044,-0.004,-0.0024,-0.0025,-0.0031,-0.0053,-0.0038,-0.0056,-0.0041,-0.0035,-0.0032,-0.0028,0.0013,-0.0008,-0.0009,-0.001,0.0061,0.0066,0.007,0,0,0,0,0,0,-0.0043,-0.0037,-0.0047,-0.0023,-0.0017,-0.0023,-0.0016,-0.0031,-0.0037,-0.0039,-0.0048,-0.0045,-0.0031,-0.0034,-0.003,0.0005,-0.0018,-0.0018,0.0035,0.0039,0.0043,0.0068,-0.0014,0,0,0,0,0,-0.0039,-0.0024,-0.0022,-0.0003,0.0,-0.0014,-0.0014,-0.0013,-0.0019,-0.0022,-0.0024,-0.0032,-0.0034,-0.0017,-0.0023,0.0004,-0.0033,0.0027,0.0031,0.0035,0.0053,-0.0006,-0.0005,-0.0014,-0.0014,-0.0014,0,0,-0.0027,-0.0024,-0.0015,-0.0,-0.0003,0.0024,-0.0012,0.0004,0.0029,-0.0016,0.0007,-0.0021,-0.0033,-0.0009,-0.0,0.0001,0.0016,0.0034,0.0037,0.0054,-0.0007,-0.0006,-0.0005,-0.0014,-0.0014,-0.0014,0,0,0.0013,0.0007,0.0036,0.0046,0.0055,0.0052,0.0058,0.0056,0.006,0.0075,0.0036,0.0024,0.0036,0.0033,0.0033,0.0051,0.0023,0.0049,0.0115,0.0058,0.0059,0.0059,0.0011,0.0006,0.0069,0.0069,0.0069,0,0.0024,0.0062,0.0047,0.008,0.0092,0.0069,0.0106,0.0112,0.0111,0.0108,0.01,0.0065,0.0063,0.0071,0.0085,0.0067,0.0022,0.0108,0.0065,0.0064,0.0063,0.0014,0.0008,0.0073,0.0072,0.0072,0.0071,0,0.009,0.0118,0.0137,0.0168,0.018,0.021,0.0216,0.0226,0.0214,0.0206,0.0199,0.0171,0.0151,0.0151,0.0139,0.0133,0.0097,0.0064,0.0062,0.0069,0.0016,0.0009,0.0078,0.0076,0.0075,0.0074,0,0,0.0121,0.0172,0.018,0.02,0.0227,0.0242,0.0284,0.0302,0.0302,0.0306,0.0293,0.0303,0.0257,0.0251,0.0214,0.0189,0.0152,0.0141,0.0136,0.0109,0.0022,0.0063,0.0058,0.0103,0.0102,0.0101,-0.0013,0,0.0175,0.0246,0.026,0.0321,0.0352,0.0347,0.0375,0.0385,0.0376,0.0357,0.033,0.0309,0.0305,0.0283,0.0257,0.0163,0.0135,0.0186,0.0006,0.0002,0.0049,0.0052,0.0098,-0.0018,-0.002,-0.0022,-0.0023,0,0.0233,0.027,0.0343,0.0376,0.0387,0.0425,0.0433,0.0456,0.0433,0.0428,0.0406,0.0352,0.0328,0.03,0.0195,0.0221,0.0141,0.0075,0.0068,0.008,0.0029,-0.0031,-0.0037,-0.0036,-0.0035,-0.0034,-0.0033,0,0.0248,0.0321,0.0374,0.0394,0.0436,0.0465,0.048,0.0476,0.0489,0.0462,0.045,0.0392,0.0357,0.026,0.0164,0.0161,0.0019,-0.0015,-0.0052,-0.0052,-0.0087,-0.0086,-0.0099,-0.0098,-0.0098,-0.0098,-0.0098,0,0.029,0.033,0.039,0.0422,0.0473,0.0485,0.0526,0.0533,0.0526,0.0524,0.0483,0.0452,0.0343,0.0249,0.0152,0.0046,0.0011,-0.0031,-0.0073,-0.0055,-0.005,-0.0093,-0.0091,-0.0102,-0.0101,-0.01,-0.01,0,0.0297,0.034,0.0398,0.046,0.0489,0.0518,0.0581,0.0587,0.0595,0.0584,0.058,0.0495,0.0383,0.027,0.0096,0.0046,-0.0076,-0.0111,-0.0069,-0.0109,-0.0112,-0.0105,-0.0171,-0.0171,-0.017,-0.017,-0.017,0,0.031,0.0344,0.0426,0.0459,0.0499,0.056,0.059,0.0628,0.0631,0.0604,0.0575,0.0483,0.0417,0.0214,0.0095,-0.0073,-0.0091,-0.0143,-0.0121,-0.0082,-0.0117,-0.0111,-0.0105,-0.0169,-0.0169,-0.0168,-0.0168,0,0.0324,0.0349,0.039,0.0466,0.052,0.0583,0.063,0.0642,0.0652,0.0663,0.0584,0.049,0.0359,0.0209,0.01,-0.0029,-0.01,-0.0139,-0.0141,-0.012,-0.008,-0.0114,-0.0108,-0.0167,-0.0167,-0.0167,-0.0167,0,0.0321,0.0339,0.0392,0.0455,0.0515,0.0567,0.0613,0.0619,0.064,0.0609,0.0572,0.0452,0.0382,0.0228,0.0109,0.0019,-0.0013,-0.0036,-0.0045,-0.0048,0.0039,0.0111,0.0058,0,0,0,0,0,0.0315,0.0329,0.0377,0.0441,0.0497,0.0561,0.0603,0.0634,0.0646,0.0599,0.06,0.0481,0.0328,0.0239,0.0152,0.0103,-0.0037,-0.0001,-0.007,-0.0157,-0.0159,-0.0071,0,0,0,0,0,0,0.0304,0.0341,0.0362,0.0418,0.0469,0.0548,0.059,0.0613,0.0587,0.058,0.0485,0.0478,0.0307,0.0382,0.0155,0.0126,0.0074,-0.0069,-0.007,-0.0155,-0.0157,-0.0159,-0.0069,0,0,0,0,0]}]]